When you browse on this site, cookies collect data to enhance your experience and personalize the content and advertising you see.
Visit our Privacy Policy to learn more. By continuing to use the site, you agree to this use of cookies and data.
  • In Spain
  • List of Countries
  • For 7 days
  • Water Temperature
  • Satellite Maps
  • Weather Map
  • Weather Widgets
  • user-avatar
    Login

    Hourly Weather Stahanovo

    Today, 18 June, Tuesday

    Time Temperature Precipitation Wind Pressure Humidity
    00:00 +17°C° 0 mm 2 mps 740 mmHg 88%
    01:00 +16°C° 0 mm 2 mps 740 mmHg 89%
    02:00 +16°C° 0 mm 2 mps 740 mmHg 88%
    03:00 +17°C° 0.3 mm 2 mps 740 mmHg 88%
    04:00 +17°C° 0.3 mm 2 mps 740 mmHg 89%
    05:00 +17°C° 0.3 mm 2 mps 740 mmHg 90%
    06:00 +18°C° 0.9 mm 2 mps 740 mmHg 88%
    07:00 +20°C° 0.9 mm 2 mps 740 mmHg 86%
    08:00 +21°C° 0.9 mm 2 mps 740 mmHg 84%
    09:00 +23°C° 1 mm 2 mps 740 mmHg 79%
    10:00 +24°C° 1 mm 2 mps 739 mmHg 74%
    11:00 +26°C° 1 mm 2 mps 739 mmHg 69%
    12:00 +26°C° 0.3 mm 3 mps 739 mmHg 69%
    13:00 +26°C° 0.3 mm 3 mps 739 mmHg 69%
    14:00 +26°C° 0.3 mm 4 mps 739 mmHg 69%
    15:00 +25°C° 0.5 mm 4 mps 739 mmHg 72%
    16:00 +25°C° 0.5 mm 3 mps 739 mmHg 75%
    17:00 +25°C° 0.5 mm 3 mps 739 mmHg 78%
    18:00 +22°C° 0.2 mm 3 mps 739 mmHg 81%
    19:00 +20°C° 0.2 mm 3 mps 739 mmHg 84%
    20:00 +19°C° 0.2 mm 3 mps 739 mmHg 87%
    21:00 +18°C° 0 mm 3 mps 740 mmHg 87%
    22:00 +17°C° 0 mm 3 mps 740 mmHg 88%
    23:00 +17°C° 0 mm 2 mps 740 mmHg 89%

    Tomorrow, 19 June, Wednesday

    Time Temperature Precipitation Wind Pressure Humidity
    00:00 +16°C° 0 mm 3 mps 740 mmHg 90%
    01:00 +16°C° 0 mm 3 mps 741 mmHg 91%
    02:00 +14°C° 0 mm 3 mps 741 mmHg 92%
    03:00 +14°C° 0 mm 3 mps 741 mmHg 90%
    04:00 +16°C° 0 mm 3 mps 741 mmHg 89%
    05:00 +16°C° 0 mm 2 mps 741 mmHg 88%
    06:00 +17°C° 0 mm 3 mps 742 mmHg 83%
    07:00 +19°C° 0 mm 3 mps 742 mmHg 78%
    08:00 +20°C° 0 mm 3 mps 742 mmHg 73%
    09:00 +21°C° 0 mm 3 mps 742 mmHg 68%
    10:00 +24°C° 0 mm 3 mps 742 mmHg 62%
    11:00 +25°C° 0 mm 3 mps 742 mmHg 56%
    12:00 +25°C° 0 mm 3 mps 742 mmHg 55%
    13:00 +25°C° 0 mm 3 mps 742 mmHg 55%
    14:00 +26°C° 0 mm 3 mps 742 mmHg 54%
    15:00 +26°C° 0 mm 2 mps 742 mmHg 57%
    16:00 +26°C° 0 mm 2 mps 742 mmHg 60%
    17:00 +26°C° 0 mm 1 mps 742 mmHg 64%
    18:00 +24°C° 0 mm 1 mps 742 mmHg 68%
    19:00 +22°C° 0 mm 1 mps 742 mmHg 73%
    20:00 +20°C° 0 mm 1 mps 742 mmHg 77%
    21:00 +19°C° 0 mm 1 mps 742 mmHg 78%
    22:00 +18°C° 0 mm 1 mps 742 mmHg 80%
    23:00 +18°C° 0 mm 1 mps 743 mmHg 81%

    Day after tomorrow, 20 June, Thursday

    Time Temperature Precipitation Wind Pressure Humidity
    00:00 +16°C° 0 mm 1 mps 743 mmHg 81%
    01:00 +16°C° 0 mm 1 mps 743 mmHg 81%
    02:00 +15°C° 0 mm 1 mps 743 mmHg 82%
    03:00 +16°C° 0 mm 1 mps 743 mmHg 82%
    04:00 +18°C° 0 mm 1 mps 743 mmHg 82%
    05:00 +19°C° 0 mm 1 mps 743 mmHg 82%
    06:00 +20°C° 0 mm 1 mps 743 mmHg 77%
    07:00 +20°C° 0 mm 0 mps 743 mmHg 73%
    08:00 +22°C° 0 mm 0 mps 744 mmHg 68%
    09:00 +23°C° 0 mm 0 mps 744 mmHg 63%
    10:00 +24°C° 0 mm 0 mps 744 mmHg 58%
    11:00 +25°C° 0 mm 0 mps 744 mmHg 53%
    12:00 +25°C° 0 mm 0 mps 743 mmHg 52%
    13:00 +26°C° 0 mm 0 mps 743 mmHg 50%
    14:00 +26°C° 0 mm 0 mps 743 mmHg 48%
    15:00 +26°C° 0 mm 0 mps 743 mmHg 52%
    16:00 +27°C° 0 mm 1 mps 743 mmHg 56%
    17:00 +27°C° 0 mm 1 mps 743 mmHg 60%
    18:00 +25°C° 0 mm 1 mps 743 mmHg 63%
    19:00 +23°C° 0 mm 1 mps 743 mmHg 66%
    20:00 +21°C° 0 mm 1 mps 743 mmHg 68%
    21:00 +20°C° 0 mm 1 mps 743 mmHg 72%
    22:00 +20°C° 0 mm 1 mps 743 mmHg 75%
    23:00 +19°C° 0 mm 1 mps 743 mmHg 79%

    21 June, Friday

    Time Temperature Precipitation Wind Pressure Humidity
    00:00 +19°C° 0 mm 1 mps 743 mmHg 80%
    01:00 +18°C° 0 mm 1 mps 743 mmHg 82%
    02:00 +18°C° 0 mm 1 mps 744 mmHg 84%
    03:00 +19°C° 0 mm 1 mps 744 mmHg 83%
    04:00 +19°C° 0 mm 1 mps 744 mmHg 83%
    05:00 +20°C° 0 mm 1 mps 744 mmHg 83%
    06:00 +21°C° 0 mm 1 mps 744 mmHg 78%
    07:00 +23°C° 0 mm 2 mps 744 mmHg 73%
    08:00 +24°C° 0 mm 2 mps 744 mmHg 69%
    09:00 +25°C° 0 mm 2 mps 744 mmHg 64%
    10:00 +26°C° 0 mm 2 mps 744 mmHg 60%
    11:00 +27°C° 0 mm 2 mps 744 mmHg 56%
    12:00 +27°C° 0 mm 2 mps 744 mmHg 55%
    13:00 +27°C° 0 mm 2 mps 744 mmHg 55%
    14:00 +27°C° 0 mm 2 mps 743 mmHg 55%
    15:00 +27°C° 0 mm 2 mps 743 mmHg 59%
    16:00 +27°C° 0 mm 2 mps 743 mmHg 63%
    17:00 +27°C° 0 mm 2 mps 743 mmHg 67%
    18:00 +25°C° 0 mm 2 mps 743 mmHg 71%
    19:00 +23°C° 0 mm 2 mps 743 mmHg 74%
    20:00 +21°C° 0 mm 2 mps 743 mmHg 78%
    21:00 +20°C° 0 mm 2 mps 743 mmHg 79%
    22:00 +19°C° 0 mm 2 mps 743 mmHg 81%
    23:00 +19°C° 0 mm 2 mps 743 mmHg 82%

    22 June, Saturday

    Time Temperature Precipitation Wind Pressure Humidity
    00:00 +18°C° 0 mm 2 mps 743 mmHg 83%
    01:00 +18°C° 0 mm 2 mps 743 mmHg 84%
    02:00 +18°C° 0 mm 2 mps 743 mmHg 85%
    03:00 +18°C° 0 mm 2 mps 743 mmHg 85%
    04:00 +18°C° 0 mm 2 mps 743 mmHg 84%
    05:00 +19°C° 0 mm 2 mps 743 mmHg 84%
    06:00 +20°C° 0 mm 3 mps 743 mmHg 81%
    07:00 +22°C° 0 mm 3 mps 744 mmHg 78%
    08:00 +25°C° 0 mm 3 mps 744 mmHg 75%
    09:00 +26°C° 0 mm 4 mps 744 mmHg 70%
    10:00 +27°C° 0 mm 4 mps 743 mmHg 66%
    11:00 +28°C° 0 mm 4 mps 743 mmHg 61%
    12:00 +28°C° 0 mm 4 mps 743 mmHg 61%
    13:00 +28°C° 0 mm 5 mps 743 mmHg 61%
    14:00 +28°C° 0 mm 5 mps 743 mmHg 61%
    15:00 +28°C° 0 mm 4 mps 743 mmHg 65%
    16:00 +28°C° 0 mm 4 mps 742 mmHg 69%
    17:00 +27°C° 0 mm 3 mps 742 mmHg 73%
    18:00 +26°C° 0 mm 3 mps 742 mmHg 77%
    19:00 +24°C° 0 mm 3 mps 742 mmHg 81%
    20:00 +22°C° 0 mm 3 mps 743 mmHg 85%
    21:00 +21°C° 0 mm 3 mps 743 mmHg 87%
    22:00 +21°C° 0 mm 3 mps 743 mmHg 88%
    23:00 +20°C° 0 mm 3 mps 743 mmHg 90%

    23 June, Sunday

    Time Temperature Precipitation Wind Pressure Humidity
    00:00 +20°C° 0 mm 3 mps 743 mmHg 91%
    01:00 +19°C° 0 mm 3 mps 743 mmHg 92%
    02:00 +19°C° 0 mm 3 mps 743 mmHg 93%
    03:00 +19°C° 0 mm 2 mps 743 mmHg 92%
    04:00 +20°C° 0 mm 2 mps 743 mmHg 91%
    05:00 +20°C° 0 mm 2 mps 743 mmHg 90%
    06:00 +23°C° 0.1 mm 2 mps 743 mmHg 84%
    07:00 +25°C° 0.1 mm 3 mps 743 mmHg 78%
    08:00 +27°C° 0.1 mm 3 mps 743 mmHg 73%
    09:00 +27°C° 0.1 mm 3 mps 743 mmHg 68%
    10:00 +28°C° 0.1 mm 3 mps 743 mmHg 63%
    11:00 +29°C° 0.1 mm 4 mps 743 mmHg 58%
    12:00 +29°C° 0 mm 4 mps 743 mmHg 58%
    13:00 +30°C° 0 mm 4 mps 743 mmHg 57%
    14:00 +30°C° 0 mm 4 mps 743 mmHg 57%
    15:00 +30°C° 0 mm 3 mps 743 mmHg 61%
    16:00 +29°C° 0 mm 3 mps 743 mmHg 66%
    17:00 +29°C° 0 mm 2 mps 743 mmHg 70%
    18:00 +27°C° 0 mm 2 mps 743 mmHg 73%
    19:00 +25°C° 0 mm 2 mps 743 mmHg 76%
    20:00 +24°C° 0 mm 2 mps 743 mmHg 79%
    21:00 +23°C° 0 mm 2 mps 742 mmHg 80%
    22:00 +21°C° 0 mm 2 mps 742 mmHg 81%
    23:00 +21°C° 0 mm 2 mps 742 mmHg 83%
    Show more